Columbia, SC

9:07 AM EDT on June 25, 2017 (GMT -0400)
Columbia Metro

Weather History for KCAE - October, 2013

Change the Weather History Date:

Thursday, October 31, 2013

  Actual Average Record
Temperature  
Mean Temperature 67 °F 59 °F  
Max Temperature 81 °F 72 °F 88 °F (1950)
Min Temperature 53 °F 47 °F 31 °F (1952)
Degree Days  
Heating Degree Days 0 7  
Month to date heating degree days 71 112  
Since 1 July heating degree days 71 120  
Cooling Degree Days 2 1  
Month to date cooling degree days 120 85  
Year to date cooling degree days 2158 2152  
Growing Degree Days 17 (Base 50)    
Moisture  
Dew Point 59 °F    
Average Humidity 68    
Maximum Humidity 93    
Minimum Humidity 43    
Precipitation  
Precipitation T in 0.09 in 2.25 in (1988)
Month to date precipitation 1.98 3.17  
Year to date precipitation 47.53 38.63  
Sea Level Pressure  
Sea Level Pressure 30.09 in    
Wind  
Wind Speed 5 mph (South)    
Max Wind Speed 17 mph    
Max Gust Speed 22 mph    
Visibility 9 miles    
Events      
T = Trace of Precipitation, MM = Missing Value Source: NWS Daily Summary

Daily Weather History Graph

Daily Weather History Graph

Search for Another Location

Airport or City:

Trip Planner

Search our weather history database for the weather conditions in past years. The results will help you decide how hot, cold, wet, or windy it might be!

Date:

Astronomy

Oct. 31, 2013 Rise Set
Actual Time 7:43 AM EDT 6:32 PM EDT
Civil Twilight 7:17 AM EDT 6:58 PM EDT
Nautical Twilight 6:47 AM EDT 7:27 PM EDT
Astronomical Twilight 6:18 AM EDT 7:56 PM EDT
Moon 4:39 AM EDT (10/31) 4:43 PM EDT (10/31)
Length of Visible Light 11h 40m
Length of Day
10h 49m
Waning Crescent, 10% of the Moon is Illuminated
Oct 31
Waning Crescent
Nov 3
New
Nov 10
First Quarter
Nov 17
Full
Nov 25
Last Quarter

Hourly Weather History & Observations

Time (EDT) Temp. Heat Index Dew Point Humidity Pressure Visibility Wind Dir Wind Speed Gust Speed Precip Events Conditions
12:56 AM 62.1 °F - 57.9 °F 86% 30.19 in 9.0 mi East 5.8 mph - N/A   Clear
1:56 AM 62.1 °F - 57.0 °F 84% 30.20 in 9.0 mi Calm Calm - N/A   Clear
2:56 AM 57.9 °F - 55.0 °F 90% 30.19 in 10.0 mi Calm Calm - N/A   Clear
3:56 AM 55.9 °F - 53.1 °F 90% 30.18 in 9.0 mi Calm Calm - N/A   Clear
4:56 AM 57.9 °F - 54.0 °F 87% 30.17 in 8.0 mi Calm Calm - N/A   Clear
5:56 AM 55.9 °F - 53.1 °F 90% 30.16 in 9.0 mi Calm Calm - N/A   Clear
6:56 AM 54.0 °F - 52.0 °F 93% 30.18 in 8.0 mi Calm Calm - N/A   Clear
7:56 AM 53.1 °F - 51.1 °F 93% 30.17 in 6.0 mi Calm Calm - N/A   Mostly Cloudy
8:56 AM 57.9 °F - 54.0 °F 87% 30.18 in 7.0 mi Calm Calm - N/A   Mostly Cloudy
9:56 AM 63.0 °F - 57.0 °F 81% 30.17 in 5.0 mi Calm Calm - N/A   Haze
10:56 AM 68.0 °F - 59.0 °F 73% 30.15 in 9.0 mi Calm Calm - N/A   Mostly Cloudy
11:56 AM 77.0 °F - 54.0 °F 45% 30.13 in 10.0 mi SSE 8.1 mph - N/A   Scattered Clouds
12:56 PM 78.1 °F - 55.9 °F 46% 30.09 in 10.0 mi SSW 9.2 mph - N/A   Mostly Cloudy
1:56 PM 80.1 °F 80.7 °F 59.0 °F 48% 30.06 in 10.0 mi SSW 10.4 mph - N/A   Mostly Cloudy
2:56 PM 79.0 °F - 60.1 °F 52% 30.04 in 10.0 mi South 15.0 mph - N/A   Overcast
3:56 PM 79.0 °F - 62.1 °F 56% 30.01 in 10.0 mi South 12.7 mph 21.9 mph N/A   Mostly Cloudy
4:56 PM 78.1 °F - 62.1 °F 58% 29.99 in 10.0 mi South 8.1 mph - N/A   Mostly Cloudy
5:56 PM 77.0 °F - 63.0 °F 62% 29.97 in 10.0 mi SSE 8.1 mph - N/A   Overcast
6:56 PM 72.0 °F - 66.9 °F 84% 29.97 in 10.0 mi SW 4.6 mph - 0.00 in   Overcast
7:56 PM 71.1 °F - 66.9 °F 87% 29.98 in 10.0 mi Calm Calm - N/A   Partly Cloudy
8:56 PM 71.1 °F - 66.0 °F 84% 29.98 in 10.0 mi South 5.8 mph - N/A   Scattered Clouds
9:56 PM 71.1 °F - 66.0 °F 84% 29.96 in 10.0 mi South 6.9 mph - N/A   Scattered Clouds
10:56 PM 71.1 °F - 66.0 °F 84% 29.97 in 10.0 mi South 8.1 mph - N/A   Scattered Clouds
11:56 PM 71.1 °F - 66.0 °F 84% 29.94 in 10.0 mi South 10.4 mph - N/A   Scattered Clouds